• Join FlightAware (Why Join?)
  • Login
  • US Flag GB Flag 
14:41 EDT


 

Airport Tracker/Info


-or-


 

Live Flight TrackerFlight Track Log ✈ EJA929 ✈ 11-Sep-2013 ✈ KIAD - KALB

Flight Track Log - Related Links

Times and Time Zones

All times are in EDT time to prevent confusion due to time zone crossing. See the EJA929 flight status page for this flight to view local times or setup timezone preferences in your user account.

Time Position Orientation Groundspeed Altitude Reporting Facility
EDT Latitude Longitude Course Direction KTS MPH feet Rate Location/Type
09:10 38.9833 -77.5500 43° Northeast 230 265 3,600  Level Potomac TRACON
09:11 39.0333 -77.6167 314° West 265 305 5,900 1,800 Climbing Potomac TRACON
09:13 39.1333 -77.5333 33° Northeast 296 341 9,000 1,020 Climbing Potomac TRACON
09:14 39.1667 -77.4500 63° Northeast 293 337 9,000  Level Potomac TRACON
09:15 39.5674 -76.8984 43° Northeast  Level Estimated
09:15 39.2000 -77.3500 67° East 286 329 9,100  Level Potomac TRACON
09:16 39.2500 -77.2500 57° Northeast 322 371 10,000 420 Climbing Potomac TRACON
09:17 39.3000 -77.1333 61° Northeast 390 449 10,000 780 Level Potomac TRACON
09:19 39.3192 -76.8767 84° East 400 460 12,500 1,260 Climbing Washington Center
09:20 39.3019 -76.7422 99° East 395 455 13,900 1,380 Climbing Washington Center
09:21 39.2842 -76.6106 100° East 384 442 15,300 1,260 Climbing Washington Center
09:22 39.2667 -76.4736 99° East 384 442 16,500 1,020 Climbing Washington Center
09:23 39.2506 -76.3636 101° East 384 442 17,400 780 Climbing Washington Center
09:24 39.2286 -76.1972 100° East 389 448 18,100 720 Climbing Washington Center
09:25 39.2147 -76.0497 97° East 401 461 18,900 780 Climbing Washington Center
09:26 39.2067 -75.9078 94° East 406 467 19,700 600 Climbing Washington Center
09:27 39.2653 -75.7819 59° Northeast 387 445 20,200 540 Climbing Washington Center
09:28 39.3508 -75.6722 45° Northeast 399 459 20,800 600 Climbing Washington Center
09:29 39.4364 -75.5672 43° Northeast 404 465 21,400 840 Climbing Washington Center
09:30 39.5217 -75.4544 46° Northeast 417 480 22,500 1,140 Climbing Washington Center
09:31 39.6069 -75.3436 45° Northeast 422 486 23,700 1,200 Climbing Washington Center
09:32 39.6922 -75.2275 46° Northeast 428 493 24,900 1,080 Climbing Washington Center
09:33 39.7622 -75.1269 48° Northeast 447 514 25,800 1,020 Climbing New York Center
09:34 39.8478 -75.0050 48° Northeast 459 528 27,000 1,140 Climbing New York Center
09:35 39.9744 -74.8475 44° Northeast 472 543 28,400 900 Climbing New York Center
09:36 40.0633 -74.7469 41° Northeast 472 543 29,000 300 Climbing New York Center
09:37 40.1653 -74.6250 42° Northeast 479 551 29,000  Level New York Center
09:38 40.2825 -74.4792 43° Northeast 498 573 29,000  Level New York Center
09:39 40.3908 -74.3489 42° Northeast 510 587 29,000 -120 Level New York Center
09:41 40.5833 -74.1097 43° Northeast 527 606 28,700 -960 Descending Boston Center
09:42 40.6808 -73.9972 41° Northeast 527 606 26,300 -2,400 Descending Boston Center
09:43 40.7867 -73.8683 43° Northeast 517 595 24,000 -1,200 Descending Boston Center
09:44 40.8903 -73.7442 42° Northeast 507 583 24,000 -540 Level Boston Center
09:45 40.9981 -73.6061 44° Northeast 496 571 23,000 -540 Descending Boston Center
09:46 41.0886 -73.5031 41° Northeast 491 565 23,000 -240 Level Boston Center
09:47 41.1919 -73.3833 41° Northeast 485 558 22,600 -1,020 Descending Boston Center
09:48 41.3256 -73.3467 12° North 463 533 21,000 -1,560 Descending Boston Center
09:49 41.4544 -73.3789 349° North 447 514 19,500 -1,500 Descending Boston Center
09:50 41.5875 -73.4086 351° North 447 514 18,000 -780 Descending Boston Center
09:51 41.7103 -73.4383 350° North 447 514 18,000 -1,440 Level Boston Center
09:53 41.9494 -73.4897 351° North 432 497 13,900 -2,100 Descending Boston Center
09:53 41.9931 -73.5014 349° North 419 482 13,000 -2,100 Descending Boston Center
09:54 42.0597 -73.5167 350° North 420 483 11,800 -2,460 Descending Boston Center
09:54 42.0722 -73.5225 341° North 414 476 11,300 -840 Descending Boston Center
09:55 42.1719 -73.5381 353° North 409 471 11,000 -300 Descending Boston Center
09:55 42.1928 -73.5414 353° North 404 465 11,000 -600 Level Boston Center
09:56 42.2989 -73.5656 350° North 392 451 10,300 -540 Descending Boston Center
09:57 42.3656 -73.5781 352° North 367 422 10,000 -420 Descending Boston Center
09:57 42.3947 -73.5872 347° North 291 335 9,900 -1,620 Descending Boston Center
09:58 42.4550 -73.5994 351° North 300 345 8,400 -2,160 Descending Boston Center
09:58 42.4611 -73.6025 340° North 271 312 8,200 -1,560 Descending Boston Center
09:59 42.5236 -73.6119 354° North 277 319 6,900 -1,620 Descending Boston Center
09:59 42.5361 -73.6178 341° North 278 320 6,600 -1,680 Descending Boston Center
10:00 42.6047 -73.6333 351° North 277 319 5,200 -1,500 Descending Boston Center
10:00 42.6108 -73.6361 342° North 268 308 5,100 -1,620 Descending Boston Center
10:01 42.6692 -73.6486 351° North 272 313 3,600 -1,740 Descending Boston Center
10:01 42.6836 -73.6544 343° North 260 299 3,400 -600 Descending Boston Center
10:02 42.7439 -73.6700 349° North 255 293 3,000 -420 Descending Boston Center
10:02 42.7564 -73.6758 341° North 247 284 3,000 -720 Level Boston Center
10:03 42.7978 -73.6908 345° North 234 269 2,300 -1,020 Descending Boston Center
10:03 42.8061 -73.7078 304° West 205 236 2,000 -420 Descending Boston Center
10:04 42.8539 -73.7231 347° North 216 249 1,900 -840 Descending Boston Center
10:04 42.8094 -73.7758 221° Southwest 164 189 1,200 -1,080 Descending Boston Center
10:05 42.7756 -73.8064 214° Southwest 135 155 600 -540 Descending Boston Center
10:10 42.7491 -73.8020 North  Level Estimated